| time (UTC) | temp F | wind direction | speed MPH | gust MPH | rain 1hr in | rain 24hr in | rain mn in | humidity % | barometer mb |
| 20260503184425 | 57 | 263 | 7.0 | 17.0 | 0.00 | 0.00 | 0.00 | 44 | 1017.1 |
| 20260503183917 | 57 | 259 | 8.0 | 14.0 | 0.00 | 0.00 | 0.00 | 39 | 1017.1 |
| 20260503183428 | 57 | 264 | 3.0 | 15.0 | 0.00 | 0.00 | 0.00 | 38 | 1017.0 |
| 20260503182918 | 56 | 277 | 4.0 | 15.0 | 0.00 | 0.00 | 0.00 | 38 | 1017.2 |
| 20260503182428 | 55 | 291 | 7.0 | 14.0 | 0.00 | 0.00 | 0.00 | 44 | 1017.2 |
| 20260503181919 | 57 | 237 | 8.0 | 13.0 | 0.00 | 0.00 | 0.00 | 37 | 1017.2 |
| 20260503181426 | 57 | 258 | 8.0 | 15.0 | 0.00 | 0.00 | 0.00 | 42 | 1017.2 |
| 20260503180918 | 57 | 254 | 8.0 | 16.0 | 0.00 | 0.00 | 0.00 | 36 | 1017.3 |
| 20260503180424 | 56 | 300 | 10.0 | 16.0 | 0.00 | 0.00 | 0.00 | 47 | 1017.3 |
| 20260503175924 | 55 | 291 | 5.0 | 16.0 | 0.00 | 0.00 | 0.00 | 46 | 1017.3 |
| 20260503175456 | 55 | 267 | 5.0 | 17.0 | 0.00 | 0.00 | 0.00 | 38 | 1017.2 |
| 20260503174925 | 56 | 268 | 7.0 | 17.0 | 0.00 | 0.00 | 0.00 | 42 | 1017.4 |
| 20260503174457 | 56 | 306 | 8.0 | 12.0 | 0.00 | 0.00 | 0.00 | 41 | 1017.3 |
| 20260503173926 | 56 | 322 | 6.0 | 15.0 | 0.00 | 0.00 | 0.00 | 39 | 1017.5 |
| 20260503173430 | 55 | 254 | 6.0 | 17.0 | 0.00 | 0.00 | 0.00 | 38 | 1017.5 |
| 20260503172922 | 56 | 217 | 7.0 | 17.0 | 0.00 | 0.00 | 0.00 | 45 | 1017.5 |
| 20260503172431 | 55 | 294 | 8.0 | 14.0 | 0.00 | 0.00 | 0.00 | 40 | 1017.6 |
| 20260503171924 | 55 | 184 | 5.0 | 15.0 | 0.00 | 0.00 | 0.00 | 38 | 1017.8 |
| 20260503171435 | 55 | 325 | 7.0 | 17.0 | 0.00 | 0.00 | 0.00 | 44 | 1017.8 |
| 20260503170947 | 55 | 316 | 9.0 | 17.0 | 0.00 | 0.00 | 0.00 | 45 | 1018.1 |
| 20260503170416 | 55 | 286 | 4.0 | 14.0 | 0.00 | 0.00 | 0.00 | 46 | 1018.0 |
| 20260503150936 | 50 | 150 | 5.0 | 14.0 | 0.00 | 0.00 | 0.00 | 46 | 1018.8 |
| 20260503150428 | 49 | 221 | 3.0 | 14.0 | 0.00 | 0.00 | 0.00 | 43 | 1018.9 |
| 20260503130952 | 44 | 285 | 5.0 | 9.0 | 0.00 | 0.00 | 0.00 | 64 | 1019.1 |
| 20260503130442 | 44 | 259 | 4.0 | 9.0 | 0.00 | 0.00 | 0.00 | 68 | 1019.1 |
| 20260503110422 | 29 | 281 | 0.0 | 0.0 | 0.00 | 0.00 | 0.00 | 91 | 1018.3 |
| 20260503090440 | 32 | 281 | 0.0 | 0.0 | 0.00 | 0.00 | 0.00 | 92 | 1017.6 |
| 20260503081420 | 31 | 282 | 0.0 | 0.0 | 0.00 | 0.00 | 0.00 | 91 | 1017.3 |
| 20260503080931 | 31 | 282 | 0.0 | 0.0 | 0.00 | 0.00 | 0.00 | 90 | 1017.3 |
| 20260503080423 | 31 | 282 | 0.0 | 0.0 | 0.00 | 0.00 | 0.00 | 90 | 1017.3 |
| 20260503072927 | 31 | 282 | 0.0 | 0.0 | 0.00 | 0.00 | 0.00 | 88 | 1017.2 |
| 20260503072433 | 31 | 283 | 0.0 | 0.0 | 0.00 | 0.00 | 0.00 | 88 | 1017.2 |
| 20260503071923 | 31 | 283 | 0.0 | 0.0 | 0.00 | 0.00 | 0.00 | 88 | 1017.2 |
| 20260503071433 | 31 | 283 | 0.0 | 0.0 | 0.00 | 0.00 | 0.00 | 88 | 1017.2 |
| 20260503070924 | 32 | 284 | 0.0 | 0.0 | 0.00 | 0.00 | 0.00 | 88 | 1017.2 |
| 20260503070418 | 32 | 284 | 0.0 | 0.0 | 0.00 | 0.00 | 0.00 | 88 | 1017.1 |
| 20260503054930 | 35 | 282 | 0.0 | 1.0 | 0.00 | 0.00 | 0.00 | 85 | 1017.2 |
| 20260503054420 | 35 | 281 | 0.0 | 2.0 | 0.00 | 0.00 | 0.00 | 85 | 1017.2 |
| 20260503053929 | 35 | 281 | 0.0 | 2.0 | 0.00 | 0.00 | 0.00 | 85 | 1017.3 |
| 20260503053420 | 36 | 282 | 0.0 | 1.0 | 0.00 | 0.00 | 0.00 | 85 | 1017.2 |
| 20260503052926 | 36 | 282 | 0.0 | 1.0 | 0.00 | 0.00 | 0.00 | 85 | 1017.3 |
| 20260503052418 | 36 | 281 | 0.0 | 2.0 | 0.00 | 0.00 | 0.00 | 85 | 1017.2 |
| 20260503051928 | 36 | 283 | 1.0 | 2.0 | 0.00 | 0.00 | 0.00 | 85 | 1017.3 |
| 20260503051418 | 37 | 286 | 1.0 | 4.0 | 0.00 | 0.00 | 0.00 | 85 | 1017.3 |
| 20260503050930 | 37 | 287 | 0.0 | 4.0 | 0.00 | 0.00 | 0.00 | 85 | 1017.2 |
| 20260503050442 | 37 | 288 | 2.0 | 4.0 | 0.00 | 0.00 | 0.00 | 85 | 1017.3 |
| 20260503045921 | 37 | 291 | 1.0 | 4.0 | 0.00 | 0.00 | 0.00 | 86 | 1017.4 |
| 20260503045451 | 37 | 360 | 3.0 | 4.0 | 0.00 | 0.00 | 0.00 | 87 | 1017.4 |
| 20260503044922 | 37 | 281 | 1.0 | 4.0 | 0.00 | 0.00 | 0.00 | 87 | 1017.4 |
| 20260503044417 | 37 | 360 | 2.0 | 4.0 | 0.00 | 0.00 | 0.00 | 87 | 1017.4 |
| 20260503043956 | 37 | 292 | 1.0 | 4.0 | 0.00 | 0.00 | 0.00 | 86 | 1017.3 |
| 20260503043427 | 37 | 360 | 2.0 | 4.0 | 0.00 | 0.00 | 0.00 | 86 | 1017.3 |
| 20260503042917 | 37 | 360 | 3.0 | 4.0 | 0.00 | 0.00 | 0.00 | 86 | 1017.3 |
| 20260503042428 | 37 | 294 | 2.0 | 4.0 | 0.00 | 0.00 | 0.00 | 86 | 1017.4 |
| 20260503041920 | 37 | 294 | 2.0 | 4.0 | 0.00 | 0.00 | 0.00 | 86 | 1017.4 |
| 20260503041428 | 37 | 296 | 1.0 | 3.0 | 0.00 | 0.00 | 0.00 | 85 | 1017.4 |
| 20260503040919 | 37 | 294 | 1.0 | 2.0 | 0.00 | 0.00 | 0.00 | 85 | 1017.4 |
| 20260503040433 | 38 | 294 | 1.0 | 2.0 | 0.00 | 0.00 | 0.00 | 85 | 1017.4 |
| 20260503035931 | 38 | 360 | 1.0 | 3.0 | 0.00 | 0.00 | 0.00 | 84 | 1017.4 |
| 20260503035436 | 38 | 360 | 1.0 | 3.0 | 0.00 | 0.00 | 0.00 | 84 | 1017.4 |
| 20260503034926 | 38 | 296 | 1.0 | 3.0 | 0.00 | 0.00 | 0.00 | 83 | 1017.4 |
| 20260503034435 | 38 | 294 | 2.0 | 4.0 | 0.00 | 0.00 | 0.00 | 83 | 1017.4 |
| 20260503033925 | 38 | 360 | 2.0 | 4.0 | 0.00 | 0.00 | 0.00 | 83 | 1017.4 |
| 20260503033417 | 38 | 360 | 1.0 | 4.0 | 0.00 | 0.00 | 0.00 | 83 | 1017.4 |
| 20260503032926 | 38 | 317 | 0.0 | 0.0 | 0.00 | 0.00 | 0.00 | 83 | 1017.4 |
| 20260503032419 | 38 | 318 | 0.0 | 0.0 | 0.00 | 0.00 | 0.00 | 82 | 1017.4 |
| 20260503031930 | 38 | 317 | 0.0 | 0.0 | 0.00 | 0.00 | 0.00 | 82 | 1017.4 |
| 20260503031422 | 38 | 317 | 0.0 | 0.0 | 0.00 | 0.00 | 0.00 | 82 | 1017.4 |
| 20260503030933 | 38 | 316 | 0.0 | 0.0 | 0.00 | 0.00 | 0.00 | 82 | 1017.4 |
| 20260503030445 | 39 | 316 | 0.0 | 0.0 | 0.00 | 0.00 | 0.00 | 82 | 1017.3 |
| 20260503025926 | 39 | 317 | 0.0 | 0.0 | 0.00 | 0.00 | 0.00 | 81 | 1017.4 |
| 20260503025418 | 39 | 316 | 0.0 | 0.0 | 0.00 | 0.00 | 0.00 | 80 | 1017.4 |
| 20260503024943 | 39 | 317 | 0.0 | 0.0 | 0.00 | 0.00 | 0.00 | 80 | 1017.4 |
| 20260503024431 | 39 | 360 | 0.0 | 0.0 | 0.00 | 0.00 | 0.00 | 80 | 1017.4 |
| 20260503023922 | 40 | 317 | 0.0 | 0.0 | 0.00 | 0.00 | 0.00 | 80 | 1017.4 |
| 20260503023433 | 40 | 360 | 0.0 | 0.0 | 0.00 | 0.00 | 0.00 | 79 | 1017.5 |
| 20260503022927 | 40 | 360 | 0.0 | 0.0 | 0.00 | 0.00 | 0.00 | 79 | 1017.5 |
| 20260503022419 | 40 | 360 | 0.0 | 2.0 | 0.00 | 0.00 | 0.00 | 78 | 1017.5 |
| 20260503021953 | 40 | 325 | 0.0 | 2.0 | 0.00 | 0.00 | 0.00 | 78 | 1017.5 |
| 20260503021421 | 40 | 319 | 0.0 | 4.0 | 0.00 | 0.00 | 0.00 | 79 | 1017.4 |
| 20260503020932 | 40 | 321 | 2.0 | 6.0 | 0.00 | 0.00 | 0.00 | 78 | 1017.5 |
| 20260503020444 | 40 | 316 | 2.0 | 6.0 | 0.00 | 0.00 | 0.00 | 77 | 1017.5 |
| 20260503015927 | 40 | 324 | 3.0 | 6.0 | 0.00 | 0.00 | 0.00 | 78 | 1017.5 |
| 20260503015419 | 40 | 326 | 4.0 | 8.0 | 0.00 | 0.00 | 0.00 | 77 | 1017.5 |
| 20260503014930 | 40 | 327 | 4.0 | 8.0 | 0.00 | 0.00 | 0.00 | 77 | 1017.6 |
| 20260503014421 | 40 | 317 | 4.0 | 6.0 | 0.00 | 0.00 | 0.00 | 76 | 1017.6 |
| 20260503013933 | 40 | 320 | 3.0 | 6.0 | 0.00 | 0.00 | 0.00 | 76 | 1017.6 |
| 20260503013421 | 40 | 319 | 2.0 | 4.0 | 0.00 | 0.00 | 0.00 | 78 | 1017.6 |
| 20260503012931 | 40 | 319 | 0.0 | 0.0 | 0.00 | 0.00 | 0.00 | 76 | 1017.5 |
| 20260503012422 | 41 | 321 | 0.0 | 0.0 | 0.00 | 0.00 | 0.00 | 76 | 1017.5 |
| 20260503011933 | 41 | 320 | 0.0 | 0.0 | 0.00 | 0.00 | 0.00 | 77 | 1017.5 |
| 20260503011427 | 41 | 319 | 0.0 | 6.0 | 0.00 | 0.00 | 0.00 | 76 | 1017.4 |
| 20260503010917 | 41 | 321 | 1.0 | 6.0 | 0.00 | 0.00 | 0.00 | 77 | 1017.4 |
| 20260503010428 | 41 | 301 | 2.0 | 4.0 | 0.00 | 0.00 | 0.00 | 75 | 1017.4 |
| 20260503005926 | 41 | 297 | 2.0 | 4.0 | 0.00 | 0.00 | 0.00 | 75 | 1017.4 |
| 20260503005419 | 41 | 317 | 1.0 | 4.0 | 0.00 | 0.00 | 0.00 | 75 | 1017.3 |
| 20260503004930 | 41 | 319 | 2.0 | 4.0 | 0.00 | 0.00 | 0.00 | 74 | 1017.2 |
| 20260503004421 | 41 | 317 | 3.0 | 5.0 | 0.00 | 0.00 | 0.00 | 74 | 1017.1 |
| 20260503003934 | 41 | 301 | 3.0 | 5.0 | 0.00 | 0.00 | 0.00 | 73 | 1017.1 |
| 20260503003424 | 41 | 312 | 3.0 | 5.0 | 0.00 | 0.00 | 0.00 | 72 | 1017.1 |
| 20260503002934 | 41 | 343 | 2.0 | 8.0 | 0.00 | 0.00 | 0.00 | 72 | 1017.0 |
| 20260503002425 | 41 | 307 | 4.0 | 8.0 | 0.00 | 0.00 | 0.00 | 72 | 1016.9 |
| 20260503001952 | 41 | 322 | 3.0 | 7.0 | 0.00 | 0.00 | 0.00 | 73 | 1016.9 |
| 20260503001443 | 41 | 311 | 2.0 | 5.0 | 0.00 | 0.00 | 0.00 | 72 | 1016.9 |
| 20260503000955 | 42 | 299 | 3.0 | 8.0 | 0.00 | 0.00 | 0.00 | 72 | 1016.9 |
| 20260503000425 | 42 | 319 | 3.0 | 8.0 | 0.00 | 0.00 | 0.00 | 73 | 1016.8 |
| 20260502235926 | 42 | 313 | 3.0 | 8.0 | 0.00 | 0.00 | 0.00 | 74 | 1016.7 |
| 20260502235457 | 42 | 317 | 5.0 | 10.0 | 0.00 | 0.00 | 0.00 | 71 | 1016.7 |
| 20260502234929 | 42 | 309 | 5.0 | 10.0 | 0.00 | 0.00 | 0.00 | 72 | 1016.6 |
| 20260502234436 | 42 | 303 | 5.0 | 11.0 | 0.00 | 0.00 | 0.00 | 72 | 1016.6 |
| 20260502233926 | 42 | 30 | 5.0 | 11.0 | 0.00 | 0.00 | 0.00 | 72 | 1016.6 |
| 20260502233420 | 43 | 286 | 5.0 | 10.0 | 0.00 | 0.00 | 0.00 | 72 | 1016.5 |
| 20260502232952 | 43 | 308 | 3.0 | 9.0 | 0.00 | 0.00 | 0.00 | 72 | 1016.5 |
| 20260502232422 | 43 | 315 | 4.0 | 9.0 | 0.00 | 0.00 | 0.00 | 71 | 1016.4 |
| 20260502231933 | 43 | 283 | 5.0 | 8.0 | 0.00 | 0.00 | 0.00 | 70 | 1016.3 |
| 20260502231424 | 43 | 302 | 2.0 | 10.0 | 0.00 | 0.00 | 0.00 | 69 | 1016.3 |
| 20260502230935 | 43 | 311 | 6.0 | 12.0 | 0.00 | 0.00 | 0.00 | 70 | 1016.3 |
| 20260502230444 | 43 | 310 | 6.0 | 12.0 | 0.00 | 0.00 | 0.00 | 70 | 1016.3 |
| 20260502225919 | 43 | 305 | 6.0 | 13.0 | 0.00 | 0.00 | 0.00 | 70 | 1016.3 |
| 20260502225449 | 43 | 304 | 7.0 | 13.0 | 0.00 | 0.00 | 0.00 | 73 | 1016.2 |
| 20260502224922 | 44 | 306 | 6.0 | 14.0 | 0.00 | 0.00 | 0.00 | 71 | 1016.2 |
| 20260502224435 | 44 | 298 | 5.0 | 14.0 | 0.00 | 0.00 | 0.00 | 73 | 1016.3 |
| 20260502223925 | 43 | 304 | 4.0 | 11.0 | 0.00 | 0.00 | 0.00 | 73 | 1016.3 |
| 20260502223417 | 43 | 27 | 5.0 | 11.0 | 0.00 | 0.00 | 0.00 | 72 | 1016.3 |
| 20260502222946 | 43 | 277 | 6.0 | 11.0 | 0.00 | 0.00 | 0.00 | 72 | 1016.2 |
| 20260502222417 | 43 | 296 | 7.0 | 11.0 | 0.00 | 0.00 | 0.00 | 73 | 1016.1 |
| 20260502221927 | 43 | 313 | 7.0 | 12.0 | 0.00 | 0.00 | 0.00 | 72 | 1016.2 |
| 20260502221418 | 43 | 286 | 5.0 | 13.0 | 0.00 | 0.00 | 0.00 | 72 | 1016.1 |
| 20260502220930 | 43 | 313 | 6.0 | 14.0 | 0.00 | 0.00 | 0.00 | 73 | 1016.1 |
| 20260502220421 | 43 | 314 | 8.0 | 14.0 | 0.00 | 0.00 | 0.00 | 74 | 1016.1 |
| 20260502215944 | 43 | 291 | 7.0 | 14.0 | 0.00 | 0.01 | 0.00 | 73 | 1016.1 |
| 20260502215436 | 43 | 317 | 7.0 | 13.0 | 0.00 | 0.01 | 0.00 | 72 | 1016.0 |
| 20260502214924 | 44 | 310 | 7.0 | 14.0 | 0.00 | 0.01 | 0.00 | 74 | 1015.9 |
| 20260502214455 | 44 | 318 | 9.0 | 20.0 | 0.00 | 0.01 | 0.00 | 70 | 1015.9 |
| 20260502213926 | 46 | 327 | 10.0 | 20.0 | 0.00 | 0.01 | 0.00 | 68 | 1015.9 |
| 20260502213418 | 47 | 307 | 7.0 | 14.0 | 0.00 | 0.01 | 0.00 | 68 | 1016.0 |
| 20260502212948 | 47 | 331 | 10.0 | 14.0 | 0.00 | 0.01 | 0.00 | 65 | 1015.8 |
| 20260502212419 | 46 | 292 | 5.0 | 13.0 | 0.00 | 0.01 | 0.00 | 67 | 1015.6 |
| 20260502211948 | 46 | 321 | 5.0 | 11.0 | 0.00 | 0.01 | 0.00 | 65 | 1015.5 |
| 20260502211436 | 46 | 313 | 7.0 | 12.0 | 0.00 | 0.01 | 0.00 | 66 | 1015.4 |
| 20260502210927 | 47 | 30 | 7.0 | 13.0 | 0.00 | 0.01 | 0.00 | 64 | 1015.4 |
| 20260502210439 | 48 | 265 | 6.0 | 13.0 | 0.00 | 0.01 | 0.00 | 64 | 1015.4 |
| 20260502205934 | 47 | 315 | 6.0 | 11.0 | 0.00 | 0.01 | 0.00 | 69 | 1015.4 |
| 20260502205426 | 46 | 40 | 5.0 | 12.0 | 0.00 | 0.01 | 0.00 | 64 | 1015.4 |
| 20260502204936 | 47 | 304 | 8.0 | 13.0 | 0.00 | 0.01 | 0.00 | 65 | 1015.4 |
| 20260502204428 | 46 | 308 | 6.0 | 14.0 | 0.00 | 0.01 | 0.00 | 72 | 1015.3 |
| 20260502203918 | 46 | 319 | 7.0 | 14.0 | 0.00 | 0.01 | 0.00 | 67 | 1015.4 |
| 20260502203447 | 46 | 318 | 8.0 | 14.0 | 0.00 | 0.01 | 0.00 | 66 | 1015.4 |
| 20260502202956 | 46 | 308 | 9.0 | 15.0 | 0.00 | 0.01 | 0.00 | 65 | 1015.4 |
| 20260502202426 | 48 | 307 | 9.0 | 15.0 | 0.00 | 0.01 | 0.00 | 65 | 1015.4 |
| 20260502201920 | 49 | 289 | 7.0 | 13.0 | 0.00 | 0.01 | 0.00 | 65 | 1015.3 |
| 20260502201430 | 49 | 279 | 6.0 | 10.0 | 0.00 | 0.01 | 0.00 | 58 | 1015.2 |
| 20260502200921 | 48 | 310 | 4.0 | 13.0 | 0.00 | 0.01 | 0.00 | 51 | 1015.2 |
| 20260502200432 | 48 | 335 | 9.0 | 15.0 | 0.00 | 0.01 | 0.00 | 53 | 1015.3 |
| 20260502195956 | 48 | 288 | 9.0 | 15.0 | 0.00 | 0.01 | 0.00 | 55 | 1015.3 |
| 20260502195425 | 48 | 309 | 8.0 | 12.0 | 0.00 | 0.01 | 0.00 | 52 | 1015.3 |
| 20260502194917 | 48 | 305 | 7.0 | 12.0 | 0.00 | 0.01 | 0.00 | 54 | 1015.3 |
| 20260502194429 | 48 | 15 | 4.0 | 12.0 | 0.00 | 0.01 | 0.00 | 53 | 1015.3 |
| 20260502193940 | 49 | 292 | 5.0 | 13.0 | 0.00 | 0.01 | 0.00 | 53 | 1015.4 |
| 20260502193432 | 49 | 320 | 7.0 | 15.0 | 0.00 | 0.01 | 0.00 | 55 | 1015.5 |
| 20260502192925 | 49 | 20 | 9.0 | 15.0 | 0.00 | 0.01 | 0.00 | 55 | 1015.5 |
| 20260502192434 | 49 | 320 | 5.0 | 11.0 | 0.00 | 0.01 | 0.00 | 52 | 1015.5 |
| 20260502191926 | 49 | 272 | 6.0 | 11.0 | 0.00 | 0.01 | 0.00 | 58 | 1015.6 |
| 20260502191434 | 48 | 342 | 4.0 | 14.0 | 0.00 | 0.01 | 0.00 | 55 | 1015.6 |
| 20260502190925 | 48 | 310 | 9.0 | 14.0 | 0.00 | 0.01 | 0.00 | 52 | 1015.8 |
| 20260502190417 | 48 | 296 | 7.0 | 14.0 | 0.00 | 0.01 | 0.00 | 55 | 1015.8 |
| 20260502190000 | 49 | 298 | 9.0 | 14.0 | 0.00 | 0.01 | 0.00 | 54 | 1015.9 |
| 20260502185454 | 48 | 309 | 7.0 | 17.0 | 0.00 | 0.01 | 0.00 | 57 | 1015.8 |
| 20260502184945 | 48 | 307 | 8.0 | 17.0 | 0.00 | 0.01 | 0.00 | 58 | 1015.9 |